STARLINK-2449

operational
NORAD ID: 48112 Int'l Des: 2021-027 Owner: SPXS Country: US Constellation: starlink
LEOCIRCULARSTARLINK_TYPE

About STARLINK-2449

Description loading...

Live Position

Loading 3D Globe...

Upcoming Passes

Altitude History

Altitude vs Time

uPlot chart will show altitude changes over time

Two-Line Element Set

1 48112U 21027W 25251.76424150 .00000678 00000-0 64382-4 0 9990
2 48112 53.0527 273.4822 0001288 89.5431 270.5706 15.06399450244927
Epoch: Sep 8, 2025 • Age: 16 hours

Current Status

Altitude 563.3 km
Velocity 7.58 km/s
Sub-Earth Point -45.21°S, 83.12°E
Launch Date Apr 7, 2021
Age 4.4 years
Type internet

Technical Details

Classification Payload
Mass 260.00 kg
Dry Mass 248.00 kg
Total Mass 260.00 kg
Length 0.20 m
Diameter 2.80 m
Span 9.00 m
Shape Box + pan
Manufacturer SPXS
Bus Type Starlink
Phase Status In Orbit
Owner/State SPXS/US

Large Constellations

Loading constellations...